Regional Weather Roundup
Issued by NWS Spokane, WA

Home | Current Version | Previous Version | Text Only | Print | Product List | Glossary On
Versions: 1 2 3 4 5 6 7 8 9 10 11 12 13 14 15 16 17 18 19 20 21 22 23 24 25 26 27 28 29 30 31 32 33 34 35 36 37 38 39 40 41 42 43 44 45 46 47 48 49 50
108
NZUS01 KOTX 041025
RWROTX

Eastern Washington/Northern Idaho Roundup
National Weather Service, Spokane WA
200 AM PST SUN DEC 04 2016

Note: "fair" indicated few or no clouds below 12,000 feet with no
significant weather and/or obstructions to visibility.

...Northeast Washington and Northern Idaho Panhandle...

CITY           SKY/WX    TMP DP  RH WIND       PRES   REMARKS
Spokane Intl   CLOUDY    37  33  85 SW23G32   29.85F
Spokane Downto CLOUDY    40  34  79 SW17G24   29.89F
Coeur d Alene  CLOUDY    37  32  81 N3        29.88S
Deer Park      CLOUDY    37  32  82 S9        29.87F
Sandpoint      LGT RAIN  34  34 100 SW3       29.85F
Bonners Ferry  CLOUDY    36  32  87 S5        29.80F

...Southeast Washington and southern Idaho Panhandle...

CITY           SKY/WX    TMP DP  RH WIND       PRES   REMARKS
Walla Walla    CLOUDY    45  33  63 S17       30.01F
Pullman/Moscow CLOUDY    38  32  79 SW21G28   29.97F
Lewiston       CLOUDY    44  32  62 S9        29.99F
Lowell           N/A     36  34  92 CALM      30.08F
Grangeville    CLOUDY    34  32  93 SW9G20    29.99F WCI  26

...Columbia Basin...

CITY           SKY/WX    TMP DP  RH WIND       PRES   REMARKS
Ephrata        CLOUDY    39  29  67 SW13      29.89F
Moses Lake     CLOUDY    40  31  70 S12       29.91F
Pasco          CLOUDY    48  35  60 SW14G24   30.01F
Richland       CLOUDY    48  36  63 S21G33    29.99F
Hermiston      CLOUDY    46  32  58 SW7       30.03F
Pendleton      CLOUDY    42  29  59 S6        30.02F

...East Slopes Cascades...

CITY           SKY/WX    TMP DP  RH WIND       PRES   REMARKS
The Dalles     LGT RAIN  48  39  71 NW16G28   30.04F
Yakima         CLOUDY    34  29  82 CALM      29.95F
Ellensburg     CLOUDY    37  34  89 W6        29.92F
Stampede Pass  HVY SNOW  29  29 100 VRB6      29.86F VSB 1/4 WCI  23
Wenatchee      CLOUDY    43  32  65 NW8       29.89F
Omak           CLOUDY    30  28  92 N7        29.84F WCI  23
Chelan           N/A     43  30  61 S15G28      N/A
Sunnyside      CLOUDY    45  33  62 SW16      29.97F

...Southern British Columbia...

CITY           SKY/WX    TMP DP  RH WIND       PRES   REMARKS
Penticton      CLOUDY    37  34  87 S9        29.85F
Cranbrook      CLOUDY    32  28  86 SE12      29.72F WCI  23
Osoyoos          N/A     34  34 100 N2          N/A
Creston          N/A     37  34  87 S7          N/A

...Western Montana...

CITY           SKY/WX    TMP DP  RH WIND       PRES   REMARKS
Kalispell      CLOUDY    35  29  78 S8        29.83F WCI  29
Libby            N/A     34  32  93 E5        29.80F WCI  30
Missoula       CLOUDY    31  30  96 NE3       29.95F FOG

...Neighboring Cities...

CITY           SKY/WX    TMP DP  RH WIND       PRES   REMARKS
Seattle        CLOUDY    44  41  89 SW20      30.00F
Portland       LGT RAIN  47  44  90 S13       30.12F
Boise          CLOUDY    39  28  64 SE8       30.12F
Great Falls    CLOUDY    33  21  61 SW18G28   29.81F WCI  22
Calgary        MOCLDY    19  12  73 N3        29.64F



USA.gov is the U.S. government's official web portal to all federal, state and local government web resources and services.